McCall, ID

7:17 AM MST on January 18, 2017 (GMT -0700)
McCall

Weather History for KMYL - December, 2011

Change the Weather History Date:

Sunday, December 11, 2011

  Actual Average Record
Temperature  
Mean Temperature 20 °F 19 °F  
Max Temperature 34 °F 27 °F 55 °F (1939)
Min Temperature 6 °F 10 °F -12 °F (1961)
Degree Days  
Heating Degree Days 45 46  
Month to date heating degree days 495 495  
Since 1 July heating degree days 2651 3133  
Cooling Degree Days 0 0  
Month to date cooling degree days 0 0  
Year to date cooling degree days 56 25  
Moisture  
Dew Point 14 °F    
Average Humidity 76    
Maximum Humidity 92    
Minimum Humidity 59    
Precipitation  
Precipitation 0.00 in 0.05 in 1.06 in (1937)
Month to date precipitation T 0.62  
Year to date precipitation 22.80 18.66  
Sea Level Pressure  
Sea Level Pressure 30.00 in    
Wind  
Wind Speed 0 mph (SW)    
Max Wind Speed 6 mph    
Max Gust Speed 7 mph    
Visibility 9 miles    
Events      
T = Trace of Precipitation, MM = Missing Value Source: NWS Daily Summary

Daily Weather History Graph

Daily Weather History Graph

Search for Another Location

Airport or City:

Trip Planner

Search our weather history database for the weather conditions in past years. The results will help you decide how hot, cold, wet, or windy it might be!

Date:

Astronomy

Dec. 11, 2011 Rise Set
Actual Time 8:12 AM MST 5:03 PM MST
Civil Twilight 7:38 AM MST 5:36 PM MST
Nautical Twilight 7:01 AM MST 6:13 PM MST
Astronomical Twilight 6:25 AM MST 6:49 PM MST
Moon 6:18 PM MST (12/11) 9:03 AM MST (12/11)
Length of Visible Light 9h 58m
Length of Day
8h 51m
Full, 99% of the Moon is Illuminated
Dec 11
Full
Dec 17
Last Quarter
Dec 24
New
Dec 31
First Quarter
Jan 9
Full

Hourly Weather History & Observations

Time (MST) Temp. Windchill Dew Point Humidity Pressure Visibility Wind Dir Wind Speed Gust Speed Precip Events Conditions
12:51 AM 15.1 °F - 10.9 °F 84% 30.10 in 10.0 mi Calm Calm - N/A   Clear
1:51 AM 12.9 °F - 10.0 °F 88% 30.08 in 10.0 mi Calm Calm - N/A   Clear
2:51 AM 12.9 °F - 9.0 °F 84% 30.07 in 10.0 mi Calm Calm - N/A   Clear
3:51 AM 12.0 °F - 9.0 °F 88% 30.07 in 10.0 mi Calm Calm - N/A   Clear
4:51 AM 10.0 °F - 7.0 °F 87% 30.06 in 10.0 mi Calm Calm - N/A   Clear
5:51 AM 10.9 °F - 8.1 °F 88% 30.07 in 10.0 mi Calm Calm - N/A   Partly Cloudy
6:51 AM 8.1 °F - 5.0 °F 87% 30.09 in 10.0 mi Calm Calm - N/A   Clear
7:51 AM 10.0 °F - 7.0 °F 87% 30.10 in 10.0 mi Calm Calm - N/A   Partly Cloudy
8:51 AM 10.0 °F - 7.0 °F 87% 30.09 in 10.0 mi Calm Calm - N/A   Overcast
9:28 AM 12.2 °F - 8.6 °F 85% 29.91 in 10.0 mi Calm Calm - N/A   Scattered Clouds
9:36 AM 14.0 °F - 10.4 °F 86% 29.91 in 10.0 mi Calm Calm - N/A   Mostly Cloudy
9:48 AM 15.8 °F - 12.2 °F 86% 29.90 in 1.8 mi Calm Calm - N/A   Overcast
9:51 AM 16.0 °F - 12.9 °F 88% 30.08 in 1.2 mi Calm Calm - N/A   Overcast
9:59 AM 15.8 °F - 14.0 °F 93% 29.91 in 3.0 mi Calm Calm - N/A   Mostly Cloudy
10:10 AM 17.6 °F - 15.8 °F 93% 29.90 in 10.0 mi Calm Calm - N/A   Scattered Clouds
10:51 AM 19.9 °F - 18.0 °F 92% 30.06 in 10.0 mi Calm Calm - N/A   Clear
11:51 AM 25.0 °F 20.7 °F 18.0 °F 75% 30.02 in 10.0 mi SSE 3.5 mph - N/A   Scattered Clouds
12:51 PM 25.0 °F - 19.0 °F 78% 30.00 in 10.0 mi Calm Calm - N/A   Clear
1:51 PM 28.9 °F - 19.0 °F 67% 29.96 in 10.0 mi Calm Calm - N/A   Clear
2:51 PM 32.0 °F - 19.0 °F 59% 29.93 in 10.0 mi Calm Calm - N/A   Mostly Cloudy
3:51 PM 30.9 °F - 19.0 °F 61% 29.94 in 10.0 mi Calm Calm - N/A   Mostly Cloudy
4:51 PM 30.0 °F - 19.0 °F 64% 29.95 in 10.0 mi Calm Calm - N/A   Mostly Cloudy
5:51 PM 26.1 °F - 18.0 °F 71% 29.95 in 10.0 mi Calm Calm - N/A   Mostly Cloudy
6:51 PM 24.1 °F - 17.1 °F 75% 29.97 in 10.0 mi Calm Calm - N/A   Overcast
8:51 PM 24.1 °F - 18.0 °F 77% 29.97 in 10.0 mi Calm Calm - N/A   Overcast
9:51 PM 23.0 °F - 17.1 °F 78% 29.95 in 10.0 mi Calm Calm - N/A   Overcast
10:51 PM 24.1 °F 19.7 °F 17.1 °F 75% 29.95 in 10.0 mi WNW 3.5 mph - N/A   Overcast
11:51 PM 23.0 °F - 17.1 °F 78% 29.94 in 10.0 mi Calm Calm - N/A   Overcast